Probability
5 4 2 1 1 2 4 5 3 1 2 3 2 0 0 0 0 0 1 1 1 0 0 1 2 3 3 3 4 3 2 2 1 0 0 0 0 0 1 1 1 0 0
5 4 3 2 2 3 5 6 4 2 2 4 3 2 1 1 0 0 0 1 0 0 1 2 3 3 4 3 3 4 4 3 2 1 1 1 1 1 1 1 0 0 0
4 4 3 3 3 5 7 7 5 3 3 4 4 3 3 3 1 0 1 1 0 0 2 3 3 4 4 3 2 3 5 5 4 3 2 2 3 3 2 1 0 0 0
5 4 4 4 5 6 7 7 6 4 3 2 3 3 3 3 2 1 1 1 1 1 1 2 4 4 4 3 1 2 4 5 5 4 4 3 4 4 3 1 0 0 0
6 6 5 5 5 6 7 6 5 4 2 0 1 1 1 2 2 1 0 1 1 1 1 2 4 4 3 2 2 3 4 4 3 4 4 4 3 3 3 2 0 0 0
8 8 7 6 7 8 8 6 4 3 1 0 0 0 1 1 1 1 0 0 1 1 0 1 3 3 2 1 2 4 4 3 2 2 2 3 3 3 3 1 1 0 0
9 10 9 8 9 10 9 7 5 4 2 1 1 1 2 2 3 2 1 0 1 1 1 2 3 2 1 0 1 2 4 3 2 2 2 2 3 3 3 2 1 0 0
10 10 9 10 11 12 10 7 6 5 4 3 3 3 4 4 4 4 3 2 3 3 2 2 2 1 0 0 1 1 1 2 3 5 4 3 2 2 2 2 1 0 0
11 9 8 9 11 11 10 8 7 6 5 4 4 4 5 5 5 4 4 5 5 5 4 3 1 0 0 0 1 2 1 1 2 4 5 4 2 1 1 1 0 0 0
11 9 7 8 10 10 9 9 8 6 5 5 5 6 7 6 6 6 6 6 6 6 5 3 1 0 0 0 1 2 1 0 0 1 3 3 2 2 3 2 1 1 1
11 9 8 8 9 9 9 10 9 7 6 7 7 8 8 7 6 6 6 6 6 6 5 4 2 1 1 1 0 1 1 0 0 0 1 1 1 3 4 5 4 4 3
14 12 10 10 11 11 11 11 10 9 9 10 10 9 8 7 6 6 6 6 6 6 5 4 4 3 3 3 2 0 0 0 0 0 0 0 1 2 4 6 7 6 5
16 14 12 13 15 15 14 12 12 12 13 12 10 9 8 7 6 6 6 6 6 5 5 5 5 5 5 5 4 1 0 0 0 0 0 0 1 2 2 4 5 4 4
13 13 13 14 16 18 17 16 15 15 15 13 10 10 10 9 7 7 7 6 5 5 5 6 6 5 5 6 5 2 1 0 0 0 0 0 1 1 1 1 1 1 1
12 12 13 14 16 18 18 17 16 16 15 13 12 13 12 10 9 8 8 6 5 6 6 6 6 5 5 6 5 4 2 1 0 0 0 0 0 0 0 0 0 0 0
17 16 14 14 16 16 15 14 13 13 12 12 14 15 12 10 9 9 9 8 7 7 7 6 6 6 5 5 4 4 3 1 0 0 0 0 0 0 0 0 0 0 0
20 19 18 17 16 16 15 14 12 11 10 11 13 13 11 10 8 7 8 8 8 7 6 5 5 5 5 4 3 3 3 2 1 0 0 0 0 0 0 0 0 0 0
18 19 19 17 15 15 16 16 15 13 12 11 10 10 11 10 8 5 6 7 7 5 4 3 3 4 4 3 3 3 2 2 2 1 0 0 0 0 0 0 0 0 0
17 18 17 15 14 14 16 17 16 15 14 12 10 9 10 11 8 4 4 5 6 5 3 1 1 3 3 3 3 3 3 4 3 1 0 0 0 0 0 0 0 0 0
16 16 14 13 13 13 13 14 14 14 13 12 9 8 9 10 8 5 4 4 5 6 4 1 1 2 3 3 3 3 4 5 4 2 2 2 1 1 0 0 0 0 0
14 13 11 10 10 10 9 10 11 12 12 11 9 8 8 7 5 4 3 3 5 6 5 2 0 1 1 2 3 3 4 5 5 4 4 4 4 3 2 1 0 0 0
14 11 8 6 6 6 5 5 6 9 10 9 9 9 7 4 2 1 1 2 3 4 3 2 0 0 0 2 3 3 3 4 4 6 6 7 7 7 5 3 1 0 0
12 10 6 4 4 3 2 1 3 6 8 9 9 10 7 3 1 0 1 1 1 1 1 1 0 0 0 2 2 2 3 3 4 5 5 5 7 7 6 3 1 0 0
9 8 5 4 3 3 1 0 1 4 7 8 9 9 7 4 1 0 1 1 0 0 0 0 0 0 0 1 2 2 2 2 3 3 2 3 4 5 5 3 1 0 0
6 5 4 3 3 2 1 0 1 4 7 8 9 8 6 4 1 0 1 2 1 1 0 0 0 0 0 0 1 1 1 1 1 1 1 1 2 4 4 3 1 0 0
5 3 2 1 2 2 1 0 1 4 7 8 9 7 4 3 1 0 1 2 2 2 1 0 0 0 0 0 0 0 0 0 0 0 0 1 1 3 4 3 2 1 0
Wind_Speed
0 1 1 1 1 1 1 1 1 1 2 2 2 1 2 1 1 2 4 5 3 3 3 4 5 5 6 6 5 5 4 4 5 5 5 5 5 5 7 8 8 9 9
1 1 1 1 1 1 1 1 1 1 1 1 1 2 1 2 2 2 2 5 5 3 3 4 5 5 4 5 5 5 4 4 4 5 5 5 5 5 7 8 9 8 8
0 0 0 0 1 1 0 0 1 1 1 1 2 2 1 1 2 2 1 2 3 5 4 3 3 3 3 4 4 5 5 4 4 5 6 5 5 6 7 8 9 9 8
1 1 0 0 0 0 0 0 1 1 1 1 1 1 1 2 2 1 1 2 1 2 5 5 3 3 2 2 3 4 4 4 4 4 5 5 5 6 7 8 8 9 9
1 1 0 0 1 1 0 1 1 1 1 1 1 1 1 1 1 2 1 1 1 1 1 5 6 4 3 2 2 3 4 4 4 4 4 5 4 4 6 7 8 9 9
2 2 1 1 1 1 0 0 1 1 0 1 1 1 1 1 1 1 2 2 1 1 1 1 3 5 4 3 2 2 3 4 4 4 5 5 4 4 5 6 7 8 8
2 2 1 2 1 1 1 1 1 2 1 1 1 2 2 3 2 1 1 1 2 1 1 2 1 1 3 5 3 2 2 3 3 4 4 4 4 5 5 5 6 7 8
2 2 2 2 2 2 2 1 1 1 1 2 2 2 2 3 3 2 2 2 1 1 1 1 1 1 1 1 4 4 2 2 3 3 3 4 4 5 5 5 5 6 7
2 2 2 2 2 3 2 2 2 2 2 2 1 2 2 0 1 3 2 1 1 1 1 1 1 1 1 1 1 4 3 2 3 4 4 4 4 5 6 6 6 6 6
2 2 2 3 3 2 2 3 2 2 2 2 1 2 2 2 2 1 3 2 2 1 0 0 1 1 1 1 1 2 3 2 3 4 4 4 4 5 6 6 6 7 7
2 2 2 2 3 2 2 2 2 3 2 2 1 1 2 2 3 2 1 2 2 2 1 1 1 1 1 1 1 2 3 1 2 4 4 4 5 6 6 6 6 6 6
2 2 3 2 3 2 3 3 3 4 2 2 2 2 2 2 2 2 2 2 2 1 2 1 1 1 1 1 1 4 3 2 2 2 3 4 5 6 7 6 6 6 6
1 1 2 2 2 2 3 3 3 3 3 3 3 3 2 2 2 2 3 2 1 1 2 2 1 1 1 1 1 3 2 2 2 2 2 3 3 4 5 6 6 7 7
1 1 2 2 3 2 2 2 3 3 2 3 3 3 2 2 2 2 2 3 3 2 2 1 1 1 0 0 2 2 2 2 2 1 2 2 3 3 4 5 6 6 6
1 1 2 2 2 2 3 3 2 2 2 3 3 3 3 2 2 2 3 3 3 3 2 2 1 1 1 1 1 1 0 3 2 1 1 2 3 3 4 5 5 5 6
1 1 1 2 2 2 3 3 2 2 2 2 2 2 3 2 2 2 2 3 3 3 2 0 1 1 1 1 2 0 1 3 3 2 1 1 2 3 4 4 5 6 6
2 2 1 2 2 2 2 2 2 2 2 2 2 2 2 2 2 2 2 2 2 2 2 1 1 2 1 0 1 1 1 1 2 3 1 1 1 2 3 4 5 5 5
2 2 2 2 2 2 2 2 2 2 2 2 2 1 2 1 2 2 2 2 1 2 2 2 1 1 1 1 1 1 1 1 0 5 3 2 1 1 1 3 4 4 4
2 2 2 1 1 2 2 2 2 2 2 2 2 2 2 1 2 1 2 2 1 1 1 1 1 1 1 1 1 1 1 1 2 3 5 4 3 2 2 3 3 3 4
3 2 2 1 1 2 2 2 2 2 2 2 1 2 2 2 2 1 1 1 1 1 1 1 1 2 1 1 1 1 1 1 1 1 1 2 4 5 5 4 4 4 4
3 2 2 2 1 1 1 1 2 2 2 2 2 1 1 1 1 1 1 1 1 1 1 1 1 1 1 1 1 2 2 2 1 2 2 2 2 2 4 5 5 4 4
3 3 2 2 1 1 3 2 2 2 2 2 2 2 3 3 3 2 0 1 2 2 2 2 1 2 1 2 2 2 2 2 2 1 2 2 1 2 1 1 2 4 5
3 3 3 2 2 2 2 0 2 2 2 1 2 2 1 2 3 2 3 4 3 3 4 4 3 2 2 1 2 4 3 3 3 2 3 3 2 2 2 1 4 4 5
3 3 3 2 2 2 3 2 2 3 2 2 2 2 2 1 1 1 2 2 2 2 3 3 3 3 2 1 3 4 4 4 4 3 2 4 2 2 2 1 5 5 5
3 3 3 2 2 3 3 2 3 3 2 2 1 1 1 1 2 1 2 2 2 1 2 1 0 1 1 2 3 3 3 3 3 2 1 3 3 3 3 2 3 7 6
4 3 3 2 2 2 4 2 3 2 2 2 2 2 2 0 1 1 2 2 2 1 1 1 2 3 4 4 5 4 3 3 3 3 1 3 3 3 3 2 1 3 4
Wind_Direction
64 44 44 21 347 52 120 133 105 121 138 142 139 129 138 134 127 122 118 122 131 148 170 172 168 166 170 170 169 173 180 180 185 189 192 198 204 204 195 189 185 185 184
51 348 35 14 340 4 33 47 104 152 117 104 114 111 119 118 116 130 126 130 131 136 156 168 172 176 176 180 179 181 182 185 189 189 188 191 195 199 193 188 188 185 185
108 9 27 273 358 29 75 81 130 148 137 135 126 120 116 116 121 126 145 142 146 151 160 164 160 171 181 188 175 177 183 182 188 192 189 193 199 199 195 192 190 187 187
197 249 246 76 308 231 193 160 170 141 124 143 128 126 129 147 149 170 187 168 153 155 154 156 155 139 151 167 181 191 188 181 182 187 190 192 199 199 197 192 189 188 190
201 236 225 51 235 212 197 254 109 144 134 124 157 161 165 166 174 172 174 186 161 217 170 142 150 144 151 163 186 198 193 189 190 191 191 194 194 191 190 191 188 190 193
196 232 188 181 235 175 154 100 133 143 154 179 193 144 171 175 195 163 202 164 179 202 198 174 176 164 163 166 184 205 204 191 194 192 192 191 189 188 185 187 189 192 193
204 222 200 172 207 155 163 179 199 170 169 163 191 170 158 167 160 160 191 176 157 168 187 215 235 223 167 169 183 199 198 198 206 200 194 187 181 182 180 182 190 195 194
218 204 218 201 180 175 176 189 206 211 175 189 242 216 186 166 173 156 172 178 159 178 201 193 175 225 255 174 129 160 176 187 208 211 205 193 187 184 187 191 194 198 200
206 227 213 211 198 210 185 205 208 208 205 194 259 278 268 205 159 150 170 152 178 205 214 165 191 205 225 231 162 151 159 187 206 222 224 215 201 200 203 204 204 204 204
217 227 224 202 215 220 201 217 195 223 228 214 196 273 302 330 275 179 177 166 182 203 201 228 166 174 212 224 112 109 140 180 214 225 223 217 208 208 212 214 216 212 211
214 231 223 208 208 216 212 231 220 232 224 238 237 232 233 232 255 257 217 192 191 191 180 196 213 179 176 207 209 121 131 191 237 237 228 220 216 216 218 219 221 216 212
204 217 220 212 208 213 212 217 225 215 230 225 248 246 241 246 246 254 254 233 204 180 174 179 204 198 201 200 153 105 136 184 224 233 228 228 228 225 224 220 219 216 213
206 208 217 215 214 214 218 219 213 226 216 213 232 248 254 262 277 272 270 269 241 195 177 186 176 191 202 225 123 114 135 166 193 219 225 223 224 227 225 224 222 223 221
250 218 194 205 212 216 217 214 214 207 200 212 230 248 255 258 261 263 267 273 258 226 189 159 144 150 156 270 69 164 144 145 165 204 231 235 237 235 228 226 222 223 219
220 190 191 199 199 205 213 210 205 207 203 219 223 219 240 246 253 259 262 263 265 258 218 165 174 152 200 149 94 205 157 109 141 194 237 245 247 242 233 223 211 209 209
179 185 187 195 194 195 203 214 207 198 199 208 227 232 246 246 238 248 257 261 259 269 273 183 164 115 105 188 132 217 164 124 140 183 222 244 253 247 229 216 208 205 205
170 185 192 199 197 197 193 201 213 207 213 217 228 216 225 263 264 251 250 264 267 260 244 238 130 110 125 276 105 229 222 226 148 147 178 227 244 247 227 214 209 209 210
165 171 184 198 197 190 191 202 213 210 221 220 221 227 231 220 252 273 273 276 275 274 251 226 180 150 166 199 180 247 260 239 224 126 147 160 185 183 185 194 196 200 206
161 168 177 190 199 198 190 199 206 204 212 223 227 225 222 224 241 257 274 276 278 265 268 203 181 156 198 186 205 214 215 250 257 156 164 172 172 175 181 188 196 203 208
167 175 174 197 220 214 193 189 189 198 210 210 211 221 223 223 230 236 229 249 259 235 213 211 178 171 185 183 224 251 250 232 268 261 178 188 177 188 195 196 197 202 210
168 167 164 170 184 185 161 207 202 201 204 198 191 192 174 118 37 327 313 293 247 248 224 208 194 201 198 235 270 270 277 275 239 248 255 232 199 208 194 190 191 196 205
164 156 152 150 150 99 63 6 276 218 207 197 191 181 174 172 150 162 242 321 303 262 261 251 228 223 236 257 272 274 274 276 281 278 281 272 270 263 245 206 152 184 204
162 164 169 169 158 94 95 137 283 237 200 193 201 205 207 157 190 177 180 203 221 245 257 268 257 260 251 253 267 265 270 280 289 298 286 277 270 274 258 160 150 183 200
170 174 177 177 163 126 134 175 246 211 197 197 202 201 205 193 161 236 226 228 234 228 244 249 261 270 284 279 265 265 266 264 254 246 257 276 285 283 285 249 156 177 195
185 190 185 182 177 152 149 189 255 200 184 189 184 173 208 191 101 271 233 228 237 234 171 149 65 284 322 268 269 266 257 260 270 264 250 271 280 284 269 243 176 176 195
193 196 175 177 183 168 142 161 257 224 191 194 174 178 143 202 125 236 240 240 242 269 282 209 192 205 214 207 224 246 263 273 287 286 311 277 272 281 277 247 232 204 204